Back to catalog

WGS 7

USA 263

AliveMilitaryGEO
NORAD 40746·PAYLOAD·🇺🇸 United States

Launched Jul 24, 2015 from Cape Canaveral Space Force Station

Loading…

TLE

FreshSource: Space-Track

Epoch: Sep 14, 2026, 11:20 UTC

1 40746U 15036A   26257.47276789  .00000010  00000-0  00000-0 0  9999
2 40746   0.0108 157.9899 0000396 325.4018 215.2364  1.00273604 40764

Track WGS 7 in real time with AllMySat

Download on the App Store